This is the latest recevied weather packets stored in our database for station/object K5NWZ. If no packets are shown the sender has not sent any weather packets the latest 10 day(s).
| Time | Temp. | Humidity | Pressure | Rain* | Wind** | Luminosity | Snow |
|---|---|---|---|---|---|---|---|
| 1788077471 | 20.56° C | 51% | 1026.1 hPa | 0 mm | - | 0 W/m² | - |
| 1788077166 | 20.56° C | 51% | 1025.8 hPa | 0 mm | - | 0 W/m² | - |
| 1788076861 | 20.56° C | 50% | 1025.8 hPa | 0 mm | - | 0 W/m² | - |
| 1788076557 | 20.56° C | 50% | 1026 hPa | 0 mm | - | 0 W/m² | - |
| 1788076256 | 20.56° C | 49% | 1025.9 hPa | 0 mm | - | 0 W/m² | - |
| 1788075952 | 20.56° C | 48% | 1025.8 hPa | 0 mm | - | 0 W/m² | - |
| 1788075648 | 20.56° C | 49% | 1025.9 hPa | 0 mm | - | 0 W/m² | - |
| 1788075343 | 21.11° C | 49% | 1025.9 hPa | 0 mm | - | 0 W/m² | - |
| 1788075038 | 21.11° C | 49% | 1026 hPa | 0 mm | - | 0 W/m² | - |
| 1788074734 | 21.67° C | 47% | 1026.1 hPa | 0 mm | - | 0 W/m² | - |
| 1788074434 | 21.67° C | 46% | 1026.1 hPa | 0 mm | - | 0 W/m² | - |
| 1788074130 | 22.22° C | 45% | 1026.1 hPa | 0 mm | - | 0 W/m² | - |
| 1788073826 | 22.78° C | 43% | 1025.9 hPa | 0 mm | - | 0 W/m² | - |
| 1788073522 | 23.33° C | 41% | 1026.2 hPa | 0 mm | - | 0 W/m² | - |
| 1788073217 | 22.78° C | 42% | 1026.2 hPa | 0 mm | - | 0 W/m² | - |
| 1788072916 | 22.78° C | 43% | 1026.1 hPa | 0 mm | - | 0 W/m² | - |
| 1788072615 | 22.78° C | 43% | 1026.2 hPa | 0 mm | - | 0 W/m² | - |
| 1788072310 | 22.78° C | 42% | 1026.3 hPa | 0 mm | - | 0 W/m² | - |
| 1788072004 | 22.22° C | 43% | 1026.5 hPa | 0 mm | - | 0 W/m² | - |
| 1788071698 | 22.22° C | 44% | 1026.6 hPa | 0 mm | - | 0 W/m² | - |
| 1788071398 | 21.67° C | 46% | 1026.3 hPa | 0 mm | - | 0 W/m² | - |
| 1788071097 | 21.11° C | 47% | 1026.5 hPa | 0 mm | - | 0 W/m² | - |
| 1788070792 | 21.67° C | 48% | 1026.3 hPa | 0 mm | - | 0 W/m² | - |
| 1788070487 | 21.67° C | 47% | 1026.6 hPa | 0 mm | - | 0 W/m² | - |
| 1788070183 | 21.67° C | 47% | 1026.6 hPa | 0 mm | - | 0 W/m² | - |
* Rain latest hour (hover to see other rain measurements)
** Current wind speed in m/s (hover to see current wind gust speed)